Regional Weather Roundup
Issued by NWS Goodland, KS

Home | Current Version | Previous Version | Graphics & Text | Print | Product List | Glossary Off
Versions: 1 2 3 4 5 6 7 8 9 10 11 12 13 14 15 16 17 18 19 20 21 22 23 24 25 26 27 28 29 30 31 32 33 34 35 36 37 38 39 40 41 42 43 44 45 46 47 48 49 50

000
ASUS43 KGLD 061708
RWRGLD

GOODLAND FORECAST AREA HOURLY WEATHER ROUNDUP
NATIONAL WEATHER SERVICE GOODLAND KS
1100 AM MDT WED MAY 06 2015

...OFFICIAL OBSERVATIONS...

CITY           SKY/WX    TMP DP  RH WIND       PRES   REMARKS
GOODLAND KS    CLOUDY    56  52  86 S12       29.68F
HILL CITY KS   CLOUDY    64  55  72 S17G25    29.71F
IMPERIAL NEB   CLOUDY    60  52  74 SE10      29.67S
MCCOOK NEB     CLOUDY    66  54  65 S17G24    29.68S
AKRON CO       CLOUDY    56  54  93 W16       29.65F
BURLINGTON CO  CLOUDY    61  50  67 SW13      29.69R
LIMON CO       CLOUDY    55  47  74 SW7       29.72S
$$

...UNOFFICIAL OBSERVATIONS...

CITY           SKY/WX    TMP DP  RH WIND       PRES   REMARKS
COLBY KS       CLOUDY    57  55  94 S14G20    29.71S
GOVE KS          N/A     64  32  30 MISG        N/A
LENORA KS        N/A     63  32  31 MISG        N/A
NORTON KS      CLOUDY    61  52  72 SE13G18   29.70F
SHARON SPRINGS   N/A     57  55  94 MISG        N/A
KIT CARSON CO    N/A     57  53  85 MISG        N/A
YUMA CO          N/A     56  52  88 SW15        N/A
$$



USA.gov is the U.S. government's official web portal to all federal, state and local government web resources and services.